EA3GKP-7 Weather Reports


time (UTC)temp
C
wind
direction
speed
KPH
gust
KPH
rain 1hr
cm
rain 24hr
cm
rain mn
cm
humidity
%
barometer
mb
20260506195723 18 0.0 0.0 0.00 0.00 0.00 10 1016.7
20260506195223 18 0.0 0.0 0.00 0.00 0.00 10 1016.6
20260506194723 18 0.0 0.0 0.00 0.00 0.00 10 1016.6
20260506194223 18 0.0 0.0 0.00 0.00 0.00 10 1016.4
20260506193723 18 0.0 0.0 0.00 0.00 0.00 97 1016.4
20260506193223 19 0.0 0.0 0.00 0.00 0.00 95 1016.2
20260506192723 18 0.0 0.0 0.00 0.00 0.00 94 1016.2
20260506192223 19 0.0 0.0 0.00 0.00 0.00 93 1016.2
20260506191723 18 0.0 0.0 0.00 0.00 0.00 93 1016.1
20260506191223 18 0.0 0.0 0.00 0.00 0.00 94 1016.0
20260506190723 19 0.0 0.0 0.00 0.00 0.00 97 1016.0
20260506190223 19 0.0 0.0 0.00 0.00 0.00 10 1015.9
20260506185723 19 0.0 0.0 0.00 0.00 0.00 10 1015.9
20260506185223 18 0.0 0.0 0.00 0.00 0.00 97 1015.8
20260506184723 19 0.0 0.0 0.00 0.00 0.00 93 1015.8
20260506184223 19 0.0 0.0 0.00 0.00 0.00 94 1015.7
20260506183723 19 0.0 0.0 0.00 0.00 0.00 90 1015.6
20260506183223 19 0.0 0.0 0.00 0.00 0.00 87 1015.6
20260506182723 19 0.0 0.0 0.00 0.00 0.00 85 1015.5
20260506182223 19 0.0 0.0 0.00 0.00 0.00 86 1015.5
20260506181723 19 0.0 0.0 0.00 0.00 0.00 77 1015.4
20260506181223 20 0.0 0.0 0.00 0.00 0.00 73 1015.4
20260506180723 20 0.0 0.0 0.00 0.00 0.00 73 1015.3
20260506180223 20 0.0 0.0 0.00 0.00 0.00 68 1015.3
20260506175723 20 0.0 0.0 0.00 0.00 0.00 66 1015.1
20260506175223 20 0.0 0.0 0.00 0.00 0.00 64 1015.1
20260506174723 20 0.0 0.0 0.00 0.00 0.00 61 1015.1
20260506174223 20 0.0 0.0 0.00 0.00 0.00 60 1015.1
20260506173723 20 0.0 0.0 0.00 0.00 0.00 58 1015.0
20260506173223 20 0.0 0.0 0.00 0.00 0.00 56 1014.9
20260506172723 20 0.0 0.0 0.00 0.00 0.00 56 1014.9
20260506172223 20 0.0 0.0 0.00 0.00 0.00 53 1014.9
20260506171723 20 0.0 0.0 0.00 0.00 0.00 52 1014.9
20260506171223 20 0.0 0.0 0.00 0.00 0.00 53 1014.8
20260506170723 20 0.0 0.0 0.00 0.00 0.00 53 1014.9
20260506170223 20 0.0 0.0 0.00 0.00 0.00 56 1014.8
20260506165723 20 0.0 0.0 0.00 0.00 0.00 57 1014.7
20260506165223 20 0.0 0.0 0.00 0.00 0.00 59 1014.6
20260506164723 20 0.0 0.0 0.00 0.00 0.00 58 1014.6
20260506164223 20 0.0 0.0 0.00 0.00 0.00 60 1014.7
20260506163723 20 0.0 0.0 0.00 0.00 0.00 61 1014.8
20260506163223 20 0.0 0.0 0.00 0.00 0.00 61 1014.8
20260506162723 20 0.0 0.0 0.00 0.00 0.00 61 1014.7
20260506162223 20 0.0 0.0 0.00 0.00 0.00 60 1014.7
20260506161723 20 0.0 0.0 0.00 0.00 0.00 60 1014.7
20260506161222 20 0.0 0.0 0.00 0.00 0.00 60 1014.7
20260506160723 20 0.0 0.0 0.00 0.00 0.00 56 1014.7
20260506160223 20 0.0 0.0 0.00 0.00 0.00 55 1014.6
20260506155723 20 0.0 0.0 0.00 0.00 0.00 55 1014.7
20260506155223 20 0.0 0.0 0.00 0.00 0.00 54 1014.8
20260506154723 20 0.0 0.0 0.00 0.00 0.00 53 1014.7
20260506154222 21 0.0 0.0 0.00 0.00 0.00 53 1014.8
20260506153723 21 0.0 0.0 0.00 0.00 0.00 52 1014.7
20260506153223 21 0.0 0.0 0.00 0.00 0.00 52 1014.7
20260506152722 21 0.0 0.0 0.00 0.00 0.00 51 1014.7
20260506152223 21 0.0 0.0 0.00 0.00 0.00 51 1014.7
20260506151723 21 0.0 0.0 0.00 0.00 0.00 51 1014.8
20260506151222 21 0.0 0.0 0.00 0.00 0.00 51 1014.8
20260506150723 21 0.0 0.0 0.00 0.00 0.00 51 1014.9
20260506150222 21 0.0 0.0 0.00 0.00 0.00 52 1014.8
20260506145722 21 0.0 0.0 0.00 0.00 0.00 52 1014.8
20260506145222 21 0.0 0.0 0.00 0.00 0.00 49 1014.8
20260506144722 21 0.0 0.0 0.00 0.00 0.00 48 1014.9
20260506144222 21 0.0 0.0 0.00 0.00 0.00 48 1014.9
20260506143722 21 0.0 0.0 0.00 0.00 0.00 48 1014.9
20260506143222 21 0.0 0.0 0.00 0.00 0.00 48 1015.0
20260506142722 21 0.0 0.0 0.00 0.00 0.00 48 1014.9
20260506142222 21 0.0 0.0 0.00 0.00 0.00 47 1014.9
20260506141722 22 0.0 0.0 0.00 0.00 0.00 47 1014.9
20260506141222 22 0.0 0.0 0.00 0.00 0.00 47 1015.0
20260506140722 22 0.0 0.0 0.00 0.00 0.00 49 1015.0
20260506140222 21 0.0 0.0 0.00 0.00 0.00 49 1015.1
20260506135722 21 0.0 0.0 0.00 0.00 0.00 49 1015.1
20260506135222 21 0.0 0.0 0.00 0.00 0.00 47 1015.2
20260506134722 21 0.0 0.0 0.00 0.00 0.00 46 1015.2
20260506134222 21 0.0 0.0 0.00 0.00 0.00 44 1015.3
20260506133722 22 0.0 0.0 0.00 0.00 0.00 43 1015.4
20260506133222 21 0.0 0.0 0.00 0.00 0.00 43 1015.5
20260506132722 22 0.0 0.0 0.00 0.00 0.00 42 1015.4
20260506132222 22 0.0 0.0 0.00 0.00 0.00 42 1015.6
20260506131722 22 0.0 0.0 0.00 0.00 0.00 42 1015.5
20260506131223 22 0.0 0.0 0.00 0.00 0.00 42 1015.5
20260506130722 21 0.0 0.0 0.00 0.00 0.00 43 1015.7
20260506130222 21 0.0 0.0 0.00 0.00 0.00 43 1015.7
20260506125722 22 0.0 0.0 0.00 0.00 0.00 43 1015.7
20260506125223 21 0.0 0.0 0.00 0.00 0.00 43 1015.7
20260506124722 21 0.0 0.0 0.00 0.00 0.00 43 1015.8
20260506124222 21 0.0 0.0 0.00 0.00 0.00 44 1015.6
20260506123722 21 0.0 0.0 0.00 0.00 0.00 44 1015.7
20260506123222 22 0.0 0.0 0.00 0.00 0.00 43 1015.7
20260506122722 22 0.0 0.0 0.00 0.00 0.00 42 1015.8
20260506122222 21 0.0 0.0 0.00 0.00 0.00 44 1015.9
20260506121722 22 0.0 0.0 0.00 0.00 0.00 43 1015.7
20260506121222 21 0.0 0.0 0.00 0.00 0.00 42 1015.9
20260506120722 22 0.0 0.0 0.00 0.00 0.00 40 1015.9
20260506120222 23 0.0 0.0 0.00 0.00 0.00 39 1015.9
20260506115722 22 0.0 0.0 0.00 0.00 0.00 38 1015.9
20260506115222 22 0.0 0.0 0.00 0.00 0.00 39 1015.9
20260506114722 22 0.0 0.0 0.00 0.00 0.00 38 1016.0
20260506114222 23 0.0 0.0 0.00 0.00 0.00 38 1015.9
20260506113722 23 0.0 0.0 0.00 0.00 0.00 38 1016.0
20260506113222 23 0.0 0.0 0.00 0.00 0.00 40 1016.0
20260506112722 22 0.0 0.0 0.00 0.00 0.00 39 1015.9
20260506112222 22 0.0 0.0 0.00 0.00 0.00 40 1016.0
20260506111722 23 0.0 0.0 0.00 0.00 0.00 40 1016.1
20260506110722 23 0.0 0.0 0.00 0.00 0.00 40 1016.0
20260506110222 22 0.0 0.0 0.00 0.00 0.00 43 1016.1
20260506105722 22 0.0 0.0 0.00 0.00 0.00 42 1016.0
20260506105222 23 0.0 0.0 0.00 0.00 0.00 42 1016.0
20260506104722 25 0.0 0.0 0.00 0.00 0.00 38 1016.2
20260506104222 26 0.0 0.0 0.00 0.00 0.00 38 1016.1
20260506103722 25 0.0 0.0 0.00 0.00 0.00 40 1016.2
20260506103222 23 0.0 0.0 0.00 0.00 0.00 43 1016.2
20260506102722 22 0.0 0.0 0.00 0.00 0.00 42 1016.4
20260506102222 23 0.0 0.0 0.00 0.00 0.00 41 1016.5
20260506101722 25 0.0 0.0 0.00 0.00 0.00 40 1016.5
20260506101222 24 0.0 0.0 0.00 0.00 0.00 42 1016.5
20260506100722 23 0.0 0.0 0.00 0.00 0.00 42 1016.5
20260506100222 23 0.0 0.0 0.00 0.00 0.00 41 1016.5
20260506095722 24 0.0 0.0 0.00 0.00 0.00 41 1016.6
20260506095222 23 0.0 0.0 0.00 0.00 0.00 43 1016.6
20260506094722 23 0.0 0.0 0.00 0.00 0.00 43 1016.7
20260506094222 23 0.0 0.0 0.00 0.00 0.00 45 1016.7
20260506093722 22 0.0 0.0 0.00 0.00 0.00 46 1016.8
20260506093222 22 0.0 0.0 0.00 0.00 0.00 44 1017.0
20260506092722 23 0.0 0.0 0.00 0.00 0.00 44 1016.9
20260506092222 23 0.0 0.0 0.00 0.00 0.00 44 1016.9
20260506091722 23 0.0 0.0 0.00 0.00 0.00 47 1016.8
20260506091222 22 0.0 0.0 0.00 0.00 0.00 48 1016.7
20260506090722 22 0.0 0.0 0.00 0.00 0.00 51 1016.8
20260506090222 21 0.0 0.0 0.00 0.00 0.00 51 1016.8
20260506085722 22 0.0 0.0 0.00 0.00 0.00 49 1016.8
20260506085222 22 0.0 0.0 0.00 0.00 0.00 52 1016.8
20260506084722 21 0.0 0.0 0.00 0.00 0.00 56 1016.7
20260506084222 20 0.0 0.0 0.00 0.00 0.00 56 1016.9
20260506083722 20 0.0 0.0 0.00 0.00 0.00 54 1016.9
20260506083222 20 0.0 0.0 0.00 0.00 0.00 57 1016.7
20260506082722 19 0.0 0.0 0.00 0.00 0.00 58 1016.7
20260506082222 18 0.0 0.0 0.00 0.00 0.00 59 1016.8
20260506081722 18 0.0 0.0 0.00 0.00 0.00 60 1016.8
20260506081222 18 0.0 0.0 0.00 0.00 0.00 61 1016.7
20260506080722 18 0.0 0.0 0.00 0.00 0.00 61 1016.8
20260506080222 18 0.0 0.0 0.00 0.00 0.00 66 1016.9
20260506073222 17 0.0 0.0 0.00 0.00 0.00 71 1016.6
20260506072722 17 0.0 0.0 0.00 0.00 0.00 72 1016.5
20260506072222 17 0.0 0.0 0.00 0.00 0.00 75 1016.5
20260506071722 16 0.0 0.0 0.00 0.00 0.00 76 1016.5
20260506071222 16 0.0 0.0 0.00 0.00 0.00 76 1016.5
20260506070722 16 0.0 0.0 0.00 0.00 0.00 79 1016.4
20260506070222 17 0.0 0.0 0.00 0.00 0.00 79 1016.4
20260506062222 16 0.0 0.0 0.00 0.00 0.00 80 1015.9
20260506061722 16 0.0 0.0 0.00 0.00 0.00 82 1015.9
20260506061222 16 0.0 0.0 0.00 0.00 0.00 80 1015.9
20260506060722 16 0.0 0.0 0.00 0.00 0.00 94 1016.0
20260506060222 16 0.0 0.0 0.00 0.00 0.00 97 1016.0
20260506051222 15 0.0 0.0 0.00 0.00 0.00 10 1015.9
20260506050722 15 0.0 0.0 0.00 0.00 0.00 10 1015.8
20260506050222 15 0.0 0.0 0.00 0.00 0.00 10 1015.9
20260506044722 15 0.0 0.0 0.00 0.00 0.00 10 1015.8
20260506044222 15 0.0 0.0 0.00 0.00 0.00 10 1015.6
20260506043222 14 0.0 0.0 0.00 0.00 0.00 10 1015.6
20260506042722 14 0.0 0.0 0.00 0.00 0.00 10 1015.6
20260506042222 14 0.0 0.0 0.00 0.00 0.00 10 1015.4
20260506041722 14 0.0 0.0 0.00 0.00 0.00 10 1015.6
20260506041222 15 0.0 0.0 0.00 0.00 0.00 10 1015.6
20260506040722 15 0.0 0.0 0.00 0.00 0.00 10 1015.6
20260506040222 15 0.0 0.0 0.00 0.00 0.00 10 1015.6
20260506035722 15 0.0 0.0 0.00 0.00 0.00 10 1015.5
20260506035221 15 0.0 0.0 0.00 0.00 0.00 10 1015.5
20260506034721 15 0.0 0.0 0.00 0.00 0.00 10 1015.5
20260506034221 15 0.0 0.0 0.00 0.00 0.00 10 1015.4
20260506033722 15 0.0 0.0 0.00 0.00 0.00 10 1015.3
20260506033221 15 0.0 0.0 0.00 0.00 0.00 10 1015.4
20260506032722 15 0.0 0.0 0.00 0.00 0.00 10 1015.3
20260506032222 15 0.0 0.0 0.00 0.00 0.00 10 1015.4
20260506031721 15 0.0 0.0 0.00 0.00 0.00 10 1015.3
20260506031221 15 0.0 0.0 0.00 0.00 0.00 10 1015.4
20260506030721 15 0.0 0.0 0.00 0.00 0.00 10 1015.3
20260506030221 15 0.0 0.0 0.00 0.00 0.00 10 1015.4
20260506025721 15 0.0 0.0 0.00 0.00 0.00 10 1015.3
20260506025221 15 0.0 0.0 0.00 0.00 0.00 10 1015.3
20260506024721 15 0.0 0.0 0.00 0.00 0.00 10 1015.3
20260506024221 15 0.0 0.0 0.00 0.00 0.00 10 1015.2
20260506023721 15 0.0 0.0 0.00 0.00 0.00 10 1015.3
20260506023221 15 0.0 0.0 0.00 0.00 0.00 10 1015.2
20260506022722 15 0.0 0.0 0.00 0.00 0.00 10 1015.4
20260506022221 16 0.0 0.0 0.00 0.00 0.00 10 1015.3
20260506021721 16 0.0 0.0 0.00 0.00 0.00 10 1015.4
20260506021221 15 0.0 0.0 0.00 0.00 0.00 10 1015.3
20260506020721 15 0.0 0.0 0.00 0.00 0.00 10 1015.3
20260506020222 16 0.0 0.0 0.00 0.00 0.00 10 1015.3
20260506015721 15 0.0 0.0 0.00 0.00 0.00 10 1015.2
20260506015221 16 0.0 0.0 0.00 0.00 0.00 10 1015.2
20260506014721 16 0.0 0.0 0.00 0.00 0.00 10 1015.1
20260506014221 16 0.0 0.0 0.00 0.00 0.00 10 1015.0
20260506013721 16 0.0 0.0 0.00 0.00 0.00 10 1015.0
20260506013221 16 0.0 0.0 0.00 0.00 0.00 10 1015.0
20260506012721 16 0.0 0.0 0.00 0.00 0.00 10 1015.0
20260506012221 16 0.0 0.0 0.00 0.00 0.00 10 1015.1
20260506011721 16 0.0 0.0 0.00 0.00 0.00 10 1014.9
20260506011221 16 0.0 0.0 0.00 0.00 0.00 10 1014.9
20260506010721 16 0.0 0.0 0.00 0.00 0.00 10 1015.0
20260506010221 16 0.0 0.0 0.00 0.00 0.00 10 1015.0
20260506005721 16 0.0 0.0 0.00 0.00 0.00 10 1015.1
20260506005221 16 0.0 0.0 0.00 0.00 0.00 10 1015.1
20260506004721 16 0.0 0.0 0.00 0.00 0.00 10 1015.1
20260506004221 16 0.0 0.0 0.00 0.00 0.00 10 1015.3
20260506003721 16 0.0 0.0 0.00 0.00 0.00 10 1015.2
20260506003221 16 0.0 0.0 0.00 0.00 0.00 10 1015.2
20260506002721 17 0.0 0.0 0.00 0.00 0.00 10 1015.2
20260506002221 17 0.0 0.0 0.00 0.00 0.00 10 1015.1
20260506001721 17 0.0 0.0 0.00 0.00 0.00 10 1015.2
20260506001221 17 0.0 0.0 0.00 0.00 0.00 10 1015.3
20260506000721 17 0.0 0.0 0.00 0.00 0.00 10 1015.3
20260506000221 17 0.0 0.0 0.00 0.00 0.00 10 1015.3
20260505235721 17 0.0 0.0 0.00 0.00 0.00 10 1015.2
20260505235221 17 0.0 0.0 0.00 0.00 0.00 10 1015.2
20260505234721 17 0.0 0.0 0.00 0.00 0.00 10 1015.2
20260505234221 17 0.0 0.0 0.00 0.00 0.00 10 1015.2
20260505233721 17 0.0 0.0 0.00 0.00 0.00 10 1015.2
20260505233221 17 0.0 0.0 0.00 0.00 0.00 10 1015.2
20260505232721 17 0.0 0.0 0.00 0.00 0.00 10 1015.2
20260505232221 17 0.0 0.0 0.00 0.00 0.00 10 1015.1
20260505231721 17 0.0 0.0 0.00 0.00 0.00 10 1015.0
20260505231221 17 0.0 0.0 0.00 0.00 0.00 10 1014.8
20260505230721 17 0.0 0.0 0.00 0.00 0.00 10 1014.7
20260505230221 17 0.0 0.0 0.00 0.00 0.00 10 1014.8
20260505225721 17 0.0 0.0 0.00 0.00 0.00 10 1014.8
20260505225221 17 0.0 0.0 0.00 0.00 0.00 10 1014.8
20260505224721 17 0.0 0.0 0.00 0.00 0.00 10 1015.0
20260505224221 17 0.0 0.0 0.00 0.00 0.00 10 1015.2
20260505223721 17 0.0 0.0 0.00 0.00 0.00 10 1015.2
20260505223221 17 0.0 0.0 0.00 0.00 0.00 10 1015.4
20260505222721 17 0.0 0.0 0.00 0.00 0.00 10 1015.3
20260505222221 17 0.0 0.0 0.00 0.00 0.00 10 1015.4
20260505221721 17 0.0 0.0 0.00 0.00 0.00 10 1015.5
20260505221221 18 0.0 0.0 0.00 0.00 0.00 98 1015.4
20260505220721 18 0.0 0.0 0.00 0.00 0.00 98 1015.4
20260505220221 17 0.0 0.0 0.00 0.00 0.00 10 1015.5
20260505215721 18 0.0 0.0 0.00 0.00 0.00 10 1015.5
20260505215221 18 0.0 0.0 0.00 0.00 0.00 10 1015.6
20260505214721 18 0.0 0.0 0.00 0.00 0.00 10 1015.6
20260505214221 18 0.0 0.0 0.00 0.00 0.00 10 1015.6
20260505213721 17 0.0 0.0 0.00 0.00 0.00 10 1015.8
20260505213221 17 0.0 0.0 0.00 0.00 0.00 10 1015.7
20260505212721 17 0.0 0.0 0.00 0.00 0.00 10 1015.6
20260505212221 18 0.0 0.0 0.00 0.00 0.00 98 1015.4
20260505211721 18 0.0 0.0 0.00 0.00 0.00 94 1015.4
20260505211221 18 0.0 0.0 0.00 0.00 0.00 96 1015.5
20260505210721 18 0.0 0.0 0.00 0.00 0.00 95 1015.4
20260505210221 18 0.0 0.0 0.00 0.00 0.00 96 1015.4
20260505205721 18 0.0 0.0 0.00 0.00 0.00 98 1015.3
20260505205221 18 0.0 0.0 0.00 0.00 0.00 98 1015.3
20260505204721 18 0.0 0.0 0.00 0.00 0.00 10 1015.2
20260505204221 18 0.0 0.0 0.00 0.00 0.00 10 1015.2
20260505203721 18 0.0 0.0 0.00 0.00 0.00 10 1015.2
20260505203221 18 0.0 0.0 0.00 0.00 0.00 10 1015.2
20260505202721 18 0.0 0.0 0.00 0.00 0.00 10 1015.2
20260505202221 18 0.0 0.0 0.00 0.00 0.00 10 1015.1
20260505201721 18 0.0 0.0 0.00 0.00 0.00 10 1015.2
20260505201221 18 0.0 0.0 0.00 0.00 0.00 10 1015.2
20260505200721 18 0.0 0.0 0.00 0.00 0.00 10 1015.1
20260505200221 17 0.0 0.0 0.00 0.00 0.00 10 1015.1